[[{"header":{"parameterUnit":"m.s-1","parameterCategory":1,"la1":30.2991,"la2":30.254,"lo1":-89.0895,"lo2":-89.0444,"dy":0.0017,"dx":0.0017,"nx":28,"ny":28,"refTime":"2024-06-01T09:00:00:Z","depth":0,"parameterNumber":2,"parameterNumberName":"U-component_of_WINDS"},"data":[0,0,0,0,0,0,0,0,0,0,0,0,0,0,0,0,0,0,0,0,0,0,0,0,0,0,0,0,0,0,0,0,0,0,0,0,0,0,0,0,0,0,0,0,0,0,0,0,0,0,0,0,0,0,0,0,0,0,5.7561,5.7563,0,5.771,5.7712,5.7713,5.7688,5.7686,5.7683,5.7681,5.7825,5.7831,5.7837,0,0,0,0,0,0,0,0,0,0,0,0,0,5.7246,5.7252,5.7561,5.7563,5.7565,5.771,5.7712,5.7714,5.7689,5.7686,5.7682,5.7679,5.7822,5.783,5.7837,0,0,0,0,0,0,0,0,0,0,0,0,0,5.7387,5.7254,5.7561,5.757,5.7572,5.7709,5.7712,5.7714,5.7689,5.7685,5.7682,5.7678,5.782,5.7829,5.7838,5.7973,0,0,5.7867,5.7871,0,0,0,0,0,0,0,0,5.7379,5.7399,5.7567,5.757,5.7573,5.7677,5.7653,5.7801,5.769,5.7645,5.7681,5.7676,5.7778,5.779,5.7827,5.798,5.7986,5.7868,5.7873,5.7877,5.788,0,0,0,0,0,0,0,5.737,5.7392,5.762,5.7569,5.7573,5.7564,5.7579,5.7681,5.7731,5.7648,5.7647,5.7665,5.7779,5.7818,5.783,5.7988,5.7867,5.7876,5.7881,5.7885,5.8255,5.8259,0,0,0,0,0,0,5.7358,5.7384,5.7615,5.7624,5.7465,5.7572,5.759,5.7647,5.773,5.7739,5.7668,5.7664,5.7804,5.7819,5.7835,5.7995,5.7877,5.7886,5.7891,5.8251,5.8256,5.8261,0,0,0,0,0,0,5.7352,5.7379,5.7609,5.7504,5.7533,5.7582,5.7646,5.7652,5.7691,5.7745,5.7753,5.77,5.7801,5.7822,5.7939,5.8,5.789,5.7899,5.8246,5.8252,5.8258,5.8319,0,0,0,0,0,0,5.7343,5.7377,5.7431,5.7506,5.7539,5.7714,5.765,5.7658,5.7708,5.7703,5.7776,5.7785,5.78,5.7925,5.7948,5.8011,5.7906,5.8241,5.8249,5.8256,5.8311,5.8326,5.8339,0,0,0,0,0,5.7332,5.7441,5.7434,5.7462,5.7608,5.7717,5.7736,5.7753,5.7713,5.7766,5.78,5.7782,5.799,5.7937,5.7963,5.8029,5.8237,5.8247,5.8256,5.8305,5.8323,5.8339,0,0,0,0,0,0,5.7369,5.7451,5.7444,5.7581,5.7643,5.7713,5.778,5.7772,5.7844,5.7836,5.7852,5.7869,5.7987,5.802,5.7959,5.8162,5.8107,5.8122,5.8136,5.8154,5.8167,5.8155,5.7914,0,0,0,0,0,5.7394,5.748,5.7545,5.7659,5.7691,5.7731,5.7779,5.7787,5.785,5.7875,5.7918,5.7978,5.8056,5.8107,5.8182,5.8317,5.833,5.8375,5.8389,5.84,5.8412,5.8482,5.8501,5.8292,5.8292,5.8292,0,0,5.7445,5.75,5.7553,5.7669,5.7717,5.7802,5.7752,5.7845,5.7906,5.7888,5.8001,5.8035,5.8102,5.8228,5.8285,5.8259,5.8473,5.8412,5.8421,5.8426,5.8493,5.8513,5.8531,5.8298,5.8297,5.8296,0,0,5.7581,5.7633,5.7733,5.7783,5.7858,5.7884,5.7908,5.7979,5.8001,5.8116,5.8103,5.8176,5.8311,5.8359,5.8401,5.8554,5.8538,5.8578,5.8649,5.8717,5.8733,5.8748,5.8799,5.8817,5.859,5.859,5.859,0,5.7633,5.7764,5.7784,5.7878,5.7927,5.7918,5.8017,5.8064,5.8159,5.8191,5.8162,5.833,5.8375,5.851,5.8547,5.8583,5.8607,5.8568,5.873,5.8745,5.8758,5.8807,5.8827,5.8594,5.8594,5.8593,5.8593,0,5.7823,5.7914,5.7985,5.8079,5.8137,5.8233,5.8264,5.832,5.8323,5.8351,5.8465,5.8519,5.8603,5.8637,5.864,5.8771,5.8752,5.8727,5.8671,5.8782,5.8828,5.8847,5.86,5.8598,5.8597,5.8596,0,0,5.7985,5.809,5.8116,5.8157,5.824,5.8308,5.8402,5.8487,5.8533,5.8598,5.8675,5.879,5.8766,5.8813,5.8821,5.8882,5.8995,5.8848,5.8849,5.887,5.9139,5.9156,5.9177,5.8987,5.899,5.8993,5.9132,0,5.8126,5.8295,5.8316,5.8465,5.8546,5.8538,5.8619,5.8677,5.8705,5.8775,5.8805,5.8885,5.8849,5.8877,5.8937,5.8969,5.9049,5.896,5.9054,5.9057,5.9034,5.9202,5.9221,5.9349,5.9151,5.9154,5.9156,0,5.8313,5.8386,5.8544,5.8613,5.8648,5.8721,5.8799,5.8869,5.8932,5.8948,5.9001,5.9001,5.9094,5.9038,5.9164,5.9102,5.9142,5.9164,5.9169,5.9176,5.9111,5.921,5.9391,5.9408,5.9185,5.9183,5.9181,0,5.8411,5.8549,5.866,5.8697,5.8781,5.8832,5.8869,5.8929,5.8978,5.9046,5.9078,5.9155,5.9196,5.9254,5.9274,5.9231,5.9398,5.9343,5.941,5.9409,5.9443,5.944,5.9629,5.9474,5.9474,5.9473,5.9473,0,5.8564,5.866,5.8706,5.8774,5.8879,5.8901,5.9004,5.9038,5.9092,5.9163,5.9161,5.9228,5.9252,5.9321,5.9337,5.9437,5.9456,5.9469,5.9471,5.9467,5.9465,5.9491,5.9481,5.9478,5.9477,5.9476,5.9475,0,5.8691,5.8726,5.8846,5.8917,5.8937,5.9011,5.907,5.9134,5.9161,5.9252,5.9274,5.9316,5.9398,5.9424,5.9523,5.9533,5.9648,5.9645,5.9628,5.9627,5.969,5.9683,5.99,5.9928,5.9758,5.976,5.9761,0,5.8785,5.8859,5.8938,5.8987,5.9027,5.9107,5.9157,5.9181,5.9233,5.931,5.9364,5.9446,5.9512,5.9642,5.9679,5.9753,5.9749,5.982,5.976,5.9753,5.9746,5.974,5.9745,5.983,5.9832,5.9833,5.9835,0,5.8947,5.896,5.9036,5.9117,5.9178,5.9242,5.9304,5.9343,5.9375,5.9434,5.9519,5.957,5.9671,5.9751,5.9826,5.986,5.9851,5.9854,5.9872,5.9867,5.9853,5.9858,5.9655,5.9848,5.9847,5.9846,5.9845,5.9844,5.9057,5.9122,5.9187,5.927,5.932,5.9377,5.944,5.9477,5.9549,5.9635,5.9644,5.9734,5.9792,5.9894,5.9931,6.0,5.9979,6.0007,6.0013,6.0019,6.0022,5.9845,6.0014,6.0014,6.0013,6.0013,6.0013,0,5.9216,5.9258,5.9335,5.9422,5.9486,5.9477,5.9544,5.9597,5.9678,5.9736,5.9801,5.9897,5.9974,6.0018,6.0093,6.014,6.0137,6.0158,6.0153,6.016,6.0038,6.0013,6.0159,6.0159,6.0159,6.0159,6.0159,6.0159,5.9306,5.9413,5.9434,5.9565,5.9605,5.9697,5.9735,5.9787,5.9832,5.9941,6.0006,6.0035,6.0085,6.0164,6.0233,6.0244,6.027,6.0293,6.03,6.0185,6.0169,6.0155,6.0131,6.0299,6.0299,6.0416,6.0417,6.0418]},{"header":{"parameterUnit":"m.s-1","parameterCategory":1,"la1":30.2991,"la2":30.254,"lo1":-89.0895,"lo2":-89.0444,"dy":0.0017,"dx":0.0017,"nx":28,"ny":28,"refTime":"2024-06-01T09:00:00:Z","depth":0,"parameterNumber":3,"parameterNumberName":"V-component_of_WINDS"},"data":[0,0,0,0,0,0,0,0,0,0,0,0,0,0,0,0,0,0,0,0,0,0,0,0,0,0,0,0,0,0,0,0,0,0,0,0,0,0,0,0,0,0,0,0,0,0,0,0,0,0,0,0,0,0,0,0,0,0,-0.8719,-0.8717,0,-0.8532,-0.853,-0.8528,-0.8445,-0.8445,-0.8445,-0.8445,-0.8252,-0.8247,-0.8241,0,0,0,0,0,0,0,0,0,0,0,0,0,-0.9003,-0.8998,-0.8719,-0.8717,-0.8715,-0.8533,-0.853,-0.8527,-0.8445,-0.8445,-0.8445,-0.8446,-0.8254,-0.8247,-0.8241,0,0,0,0,0,0,0,0,0,0,0,0,0,-0.8854,-0.8996,-0.872,-0.8652,-0.8644,-0.8533,-0.853,-0.8527,-0.8445,-0.8445,-0.8445,-0.8446,-0.8256,-0.8248,-0.824,-0.8183,0,0,-0.8215,-0.8212,0,0,0,0,0,0,0,0,-0.8863,-0.8844,-0.8664,-0.8656,-0.8647,-0.8512,-0.8559,-0.8411,-0.8445,-0.852,-0.8446,-0.8446,-0.8338,-0.8323,-0.8287,-0.8174,-0.8165,-0.8214,-0.821,-0.8206,-0.8204,0,0,0,0,0,0,0,-0.8873,-0.8851,-0.8645,-0.8661,-0.8651,-0.863,-0.8609,-0.853,-0.8429,-0.8514,-0.8507,-0.8486,-0.8333,-0.8295,-0.8282,-0.8162,-0.8215,-0.8208,-0.8203,-0.8199,-0.7992,-0.7991,0,0,0,0,0,0,-0.8895,-0.886,-0.8651,-0.864,-0.8758,-0.8624,-0.8601,-0.8555,-0.843,-0.8411,-0.8486,-0.8483,-0.8309,-0.8292,-0.8275,-0.8199,-0.8206,-0.8199,-0.8194,-0.7993,-0.7992,-0.7991,0,0,0,0,0,0,-0.8901,-0.8877,-0.8659,-0.8748,-0.8719,-0.8619,-0.8568,-0.8551,-0.8513,-0.8409,-0.839,-0.8466,-0.8308,-0.8286,-0.8206,-0.8191,-0.8195,-0.8188,-0.7993,-0.7992,-0.7991,-0.8047,0,0,0,0,0,0,-0.891,-0.888,-0.8857,-0.8748,-0.8714,-0.8594,-0.8567,-0.8547,-0.8499,-0.8494,-0.8385,-0.8367,-0.8307,-0.8219,-0.8198,-0.818,-0.8181,-0.7994,-0.7993,-0.7992,-0.8046,-0.8049,-0.805,0,0,0,0,0,-0.892,-0.888,-0.8857,-0.8832,-0.8685,-0.8593,-0.8574,-0.8506,-0.8499,-0.8475,-0.8408,-0.8371,-0.8197,-0.8211,-0.8187,-0.8167,-0.7995,-0.7993,-0.7992,-0.8046,-0.8048,-0.805,0,0,0,0,0,0,-0.8989,-0.8865,-0.8837,-0.8761,-0.8689,-0.8579,-0.8547,-0.8511,-0.8438,-0.8435,-0.8353,-0.8329,-0.8256,-0.8203,-0.8222,-0.8104,-0.8092,-0.8086,-0.8141,-0.8143,-0.8145,-0.8158,-0.8175,0,0,0,0,0,-0.8996,-0.8933,-0.8827,-0.877,-0.8735,-0.8648,-0.8606,-0.856,-0.8481,-0.8449,-0.8377,-0.8301,-0.8229,-0.8183,-0.8111,-0.8039,-0.8014,-0.8013,-0.8015,-0.8017,-0.8012,-0.7969,-0.7967,-0.7986,-0.7986,-0.7986,0,0,-0.9009,-0.8933,-0.8898,-0.8782,-0.8721,-0.8656,-0.8623,-0.8556,-0.8507,-0.8439,-0.8359,-0.8303,-0.8213,-0.8137,-0.8099,-0.809,-0.8001,-0.8015,-0.8018,-0.8011,-0.7967,-0.7966,-0.7964,-0.7985,-0.7985,-0.7985,0,0,-0.8999,-0.8936,-0.8881,-0.882,-0.8727,-0.8669,-0.8657,-0.8553,-0.8513,-0.8432,-0.8379,-0.832,-0.8198,-0.8136,-0.8088,-0.8055,-0.8018,-0.8034,-0.8044,-0.8003,-0.8001,-0.7999,-0.7987,-0.7983,-0.803,-0.803,-0.803,0,-0.9026,-0.8927,-0.8857,-0.8793,-0.8744,-0.868,-0.8623,-0.8568,-0.8456,-0.8423,-0.8415,-0.826,-0.8195,-0.8103,-0.8095,-0.8059,-0.8041,-0.8046,-0.8007,-0.8005,-0.8002,-0.7989,-0.7984,-0.8033,-0.8032,-0.8032,-0.8032,0,-0.8965,-0.8898,-0.8864,-0.8759,-0.8706,-0.8646,-0.8566,-0.8521,-0.848,-0.8423,-0.834,-0.826,-0.8171,-0.8146,-0.8105,-0.8047,-0.8045,-0.8023,-0.8009,-0.8004,-0.799,-0.7985,-0.8036,-0.8035,-0.8035,-0.8034,0,0,-0.8992,-0.8849,-0.8838,-0.8789,-0.8682,-0.8628,-0.8566,-0.8479,-0.8441,-0.8367,-0.8311,-0.821,-0.8189,-0.8136,-0.8087,-0.8052,-0.803,-0.8034,-0.8031,-0.8035,-0.796,-0.7977,-0.7972,-0.8005,-0.8004,-0.8003,-0.7968,0,-0.8967,-0.8852,-0.8787,-0.8699,-0.8635,-0.8574,-0.8519,-0.8448,-0.8393,-0.8331,-0.827,-0.8199,-0.8178,-0.8145,-0.8107,-0.8041,-0.8013,-0.8042,-0.7951,-0.7949,-0.7975,-0.7965,-0.7981,-0.7952,-0.7962,-0.7961,-0.796,0,-0.8921,-0.8848,-0.8754,-0.8655,-0.8625,-0.8578,-0.8492,-0.8434,-0.8351,-0.8314,-0.8255,-0.8206,-0.8137,-0.813,-0.8033,-0.8054,-0.8013,-0.7975,-0.7972,-0.796,-0.7954,-0.7951,-0.7941,-0.7936,-0.7951,-0.7952,-0.7953,0,-0.895,-0.8828,-0.8755,-0.8716,-0.8598,-0.8565,-0.8515,-0.8433,-0.8384,-0.831,-0.8278,-0.8197,-0.8152,-0.809,-0.8021,-0.8022,-0.793,-0.7917,-0.7896,-0.7898,-0.7878,-0.788,-0.7861,-0.7855,-0.7855,-0.7855,-0.7855,0,-0.8927,-0.8872,-0.8767,-0.8722,-0.8658,-0.8584,-0.8522,-0.8466,-0.8394,-0.8337,-0.8279,-0.8227,-0.8139,-0.8076,-0.8022,-0.7949,-0.793,-0.7897,-0.7883,-0.7901,-0.7905,-0.7872,-0.7872,-0.7854,-0.7854,-0.7854,-0.7855,0,-0.8947,-0.8875,-0.8792,-0.8687,-0.866,-0.8617,-0.8527,-0.8481,-0.8424,-0.8352,-0.8331,-0.8241,-0.8163,-0.8089,-0.7985,-0.7948,-0.7875,-0.7858,-0.7904,-0.7895,-0.7878,-0.788,-0.7835,-0.7825,-0.7828,-0.7828,-0.7828,0,-0.8937,-0.8893,-0.8784,-0.8742,-0.8692,-0.8625,-0.8576,-0.8502,-0.8453,-0.8355,-0.8321,-0.8239,-0.817,-0.8049,-0.7973,-0.7894,-0.7872,-0.7862,-0.786,-0.788,-0.7871,-0.7874,-0.7868,-0.7864,-0.7864,-0.7864,-0.7865,0,-0.8926,-0.8893,-0.8824,-0.8743,-0.8686,-0.8619,-0.8549,-0.8518,-0.843,-0.8377,-0.8298,-0.8244,-0.8138,-0.8057,-0.7969,-0.7916,-0.7875,-0.7866,-0.7857,-0.7874,-0.7902,-0.7886,-0.7907,-0.7867,-0.7867,-0.7867,-0.7866,-0.7866,-0.893,-0.8888,-0.8804,-0.8729,-0.8669,-0.8606,-0.8557,-0.8494,-0.8427,-0.8335,-0.8295,-0.8214,-0.8132,-0.8009,-0.7957,-0.7892,-0.7882,-0.7869,-0.7866,-0.7863,-0.7866,-0.7914,-0.7876,-0.7876,-0.7876,-0.7876,-0.7875,0,-0.8915,-0.8859,-0.8791,-0.8695,-0.8637,-0.8605,-0.8526,-0.8479,-0.8409,-0.8336,-0.8269,-0.8177,-0.8099,-0.8018,-0.7935,-0.7898,-0.7878,-0.7879,-0.788,-0.7868,-0.7881,-0.7896,-0.7897,-0.7897,-0.7897,-0.7897,-0.7897,-0.7897,-0.8901,-0.8827,-0.8784,-0.8679,-0.8623,-0.8544,-0.8501,-0.8442,-0.8383,-0.8284,-0.8218,-0.8166,-0.809,-0.8001,-0.7927,-0.7905,-0.7877,-0.7883,-0.7856,-0.7869,-0.7867,-0.7866,-0.7881,-0.7878,-0.7878,-0.7849,-0.7848,-0.7848]}]]